{"data":{"norad_id":37839,"intl_designator":"2011-058B","name":"JUGNU","alt_names":[],"object_type":"PAYLOAD","status":"ACTIVE","operator":null,"country":"IND","launch_date":"2011-10-12","launch_site_code":"SRILR","launch_vehicle":null,"mission":null,"orbit_class":"UNKNOWN","rcs_meters":0.1464,"size_class":null,"mass_kg":null,"dimensions":null,"purposes":["comms"],"wikipedia_slug":null,"has_3d_model":false,"image_url":null,"decayed_at":null,"tle_current":{"epoch":"2026-09-18T23:21:22.205088Z","epoch_age_seconds":146400,"freshness":"FRESH","line1":"1 37839U 11058B   26261.97317367  .00000378  00000+0  57931-4 0  9991","line2":"2 37839  19.9601  98.6261 0018563  32.4006 124.0056 14.13798990772317","mean_motion":14.1379899,"eccentricity":0.0018563,"inclination_deg":19.9601,"raan_deg":98.6261,"arg_perigee_deg":32.4006,"mean_anomaly_deg":124.0056,"bstar":5.7931e-5,"rev_number":77231,"period_min":101.8532344545,"perigee_km":832.98981676904,"apogee_km":859.81163553115,"semimajor_km":7224.5377261501,"source":"CELESTRAK","updated_at":"2026-09-20T09:00:45.231687Z"}}}